Skip Page Navigation
NASA JPL Caltech
NASA Logo - Jet Propulsion Laboratory + View the NASA Portal
+ Near-Earth Object (NEO) Program
Search JPL
JPL Home Earth Solar System Stars & Galaxies Technology
JPL Solar System Dynamics
BODIES ORBITS EPHEMERIDES TOOLS PHYSICAL DATA DISCOVERY FAQ SITE MAP
JPL Small-Body Database Browser
Search: [ help ]  
85236 (1993 KH)
Classification: Apollo [NEO, PHA]          SPK-ID: 2085236
Ephemeris | Orbit Diagram | Orbital Elements | Physical Parameters | Discovery Circumstances | Close-Approach Data ]

[ show orbit diagram ]
Orbital Elements at Epoch 2457000.5 (2014-Dec-09.0) TDB
Reference: JPL 51 (heliocentric ecliptic J2000)
 Element Value Uncertainty (1-sigma)   Units 
e .3112574987654381 5.1589e-08  
a 1.234213246993836 4.2572e-09 AU
q .8500551187913646 6.1745e-08 AU
i 12.80378561403879 9.7751e-06 deg
node 54.41857267162624 1.4499e-05 deg
peri 293.8028888568406 1.6181e-05 deg
M 183.7572063139578 1.029e-05 deg
tp 2457245.684267409387
(2015-Aug-11.18426741)
1.532e-05 JED
period 500.8223849686383
1.37
2.5913e-06
7.095e-09
d
yr
n .7188177102398156 3.7192e-09 deg/d
Q 1.618371375196307 5.5823e-09 AU
  Orbit Determination Parameters
   # obs. used (total)      228  
   data-arc span      6934 days (18.98 yr)  
   first obs. used      1993-05-24  
   last obs. used      2012-05-18  
   planetary ephem.      DE431  
   SB-pert. ephem.      SB431-BIG16  
   condition code      0  
   fit RMS      .72889  
   data source      ORB  
   producer      Otto Matic  
   solution date      2014-Jun-10 16:30:59  

Additional Information
 Earth MOID = .00098852 AU 
 T_jup = 5.119 
[ show covariance matrix ]

Ephemeris | Orbit Diagram | Orbital Elements | Physical Parameters | Discovery Circumstances | Close-Approach Data ]

Physical Parameter Table
Parameter Symbol Value Units Sigma Reference Notes
absolute magnitude H 18.6 mag n/a MPO231888  

85236 (1993 KH)          Discovered 1993-May-24 by McNaught, R. H. at Siding Spring (413)
Reference: 20040830/Numbers.arcLast Updated: 2004-09-06

[ show close-approach data ]
Ephemeris | Orbit Diagram | Orbital Elements | Physical Parameters | Discovery Circumstances | Close-Approach Data ]
ABOUT SSD CREDITS/AWARDS PRIVACY/COPYRIGHT GLOSSARY LINKS
FirstGov 2014-Oct-25 16:02 UT
(server date/time)  
NASA Home Page
Site Manager:   Donald K. Yeomans
Webmaster  Alan B. Chamberlin